| time (UTC) | temp F | wind direction | speed MPH | gust MPH | rain 1hr in | rain 24hr in | rain mn in | humidity % | barometer mb |
| 20260505124514 | 49 | 129 | 3.0 | 13.0 | 0.00 | 0.00 | 0.00 | 34 | 1007.5 |
| 20260505123012 | 48 | 75 | 6.0 | 11.0 | 0.00 | 0.00 | 0.00 | 34 | 1007.5 |
| 20260505121511 | 49 | 338 | 5.0 | 14.0 | 0.00 | 0.00 | 0.00 | 35 | 1007.6 |
| 20260505120010 | 48 | 9 | 2.0 | 11.0 | 0.00 | 0.00 | 0.00 | 39 | 1007.4 |
| 20260505114510 | 49 | 44 | 2.0 | 11.0 | 0.00 | 0.00 | 0.00 | 37 | 1007.2 |
| 20260505113007 | 48 | 131 | 2.0 | 10.0 | 0.00 | 0.00 | 0.00 | 37 | 1007.2 |
| 20260505111507 | 49 | 34 | 2.0 | 11.0 | 0.00 | 0.00 | 0.00 | 38 | 1007.1 |
| 20260505101604 | 48 | 130 | 5.0 | 12.0 | 0.00 | 0.00 | 0.00 | 38 | 1006.9 |
| 20260505100059 | 48 | 100 | 3.0 | 13.0 | 0.00 | 0.00 | 0.00 | 40 | 1006.6 |
| 20260505094606 | 48 | 143 | 6.0 | 10.0 | 0.00 | 0.00 | 0.00 | 41 | 1006.6 |
| 20260505093055 | 48 | 105 | 5.0 | 10.0 | 0.00 | 0.00 | 0.00 | 41 | 1006.6 |
| 20260505091558 | 47 | 65 | 6.0 | 15.0 | 0.00 | 0.00 | 0.00 | 41 | 1006.6 |
| 20260505090056 | 47 | 96 | 3.0 | 13.0 | 0.00 | 0.00 | 0.00 | 46 | 1006.5 |
| 20260505084549 | 47 | 86 | 4.0 | 18.0 | 0.00 | 0.00 | 0.00 | 46 | 1006.4 |
| 20260505083048 | 47 | 121 | 3.0 | 11.0 | 0.00 | 0.00 | 0.00 | 46 | 1006.4 |
| 20260505081556 | 46 | 108 | 6.0 | 13.0 | 0.00 | 0.00 | 0.00 | 49 | 1006.2 |
| 20260505080046 | 46 | 53 | 3.0 | 10.0 | 0.00 | 0.00 | 0.00 | 50 | 1006.2 |
| 20260505074554 | 46 | 150 | 2.0 | 10.0 | 0.00 | 0.00 | 0.00 | 53 | 1006.0 |
| 20260505073036 | 46 | 97 | 2.0 | 10.0 | 0.00 | 0.00 | 0.00 | 54 | 1006.0 |
| 20260505071633 | 46 | 62 | 4.0 | 12.0 | 0.00 | 0.00 | 0.00 | 55 | 1005.9 |
| 20260505070032 | 44 | 53 | 3.0 | 12.0 | 0.00 | 0.00 | 0.00 | 57 | 1005.7 |
| 20260505064533 | 44 | 165 | 4.0 | 10.0 | 0.00 | 0.00 | 0.00 | 58 | 1005.7 |
| 20260505063035 | 44 | 138 | 2.0 | 12.0 | 0.00 | 0.00 | 0.00 | 61 | 1005.6 |
| 20260505061532 | 43 | 145 | 2.0 | 8.0 | 0.00 | 0.00 | 0.00 | 64 | 1005.5 |
| 20260505060027 | 43 | 34 | 2.0 | 8.0 | 0.00 | 0.00 | 0.00 | 65 | 1005.4 |
| 20260505054528 | 43 | 115 | 4.0 | 10.0 | 0.00 | 0.00 | 0.00 | 65 | 1005.3 |
| 20260505053022 | 43 | 121 | 2.0 | 9.0 | 0.00 | 0.00 | 0.00 | 67 | 1005.2 |
| 20260505051520 | 42 | 143 | 2.0 | 8.0 | 0.00 | 0.00 | 0.00 | 67 | 1005.1 |
| 20260505041514 | 41 | 53 | 1.0 | 4.0 | 0.00 | 0.02 | 0.00 | 70 | 1004.7 |
| 20260505040012 | 41 | 61 | 1.0 | 5.0 | 0.00 | 0.03 | 0.00 | 70 | 1004.5 |
| 20260505034514 | 40 | 143 | 1.0 | 5.0 | 0.00 | 0.03 | 0.00 | 70 | 1004.4 |
| 20260505033018 | 40 | 147 | 0.0 | 5.0 | 0.00 | 0.03 | 0.00 | 72 | 1004.3 |
| 20260505031507 | 40 | 139 | 1.0 | 4.0 | 0.00 | 0.03 | 0.00 | 72 | 1004.2 |
| 20260505030005 | 40 | 133 | 1.0 | 4.0 | 0.00 | 0.07 | 0.00 | 73 | 1004.2 |
| 20260505024506 | 40 | 105 | 0.0 | 2.0 | 0.00 | 0.07 | 0.00 | 72 | 1004.1 |
| 20260505023058 | 41 | 89 | 0.0 | 5.0 | 0.00 | 0.07 | 0.00 | 72 | 1004.0 |
| 20260505021611 | 42 | 137 | 0.0 | 3.0 | 0.00 | 0.07 | 0.00 | 75 | 1003.8 |
| 20260505020052 | 42 | 99 | 0.0 | 5.0 | 0.00 | 0.08 | 0.00 | 78 | 1003.6 |
| 20260505014550 | 43 | 27 | 1.0 | 4.0 | 0.00 | 0.08 | 0.00 | 82 | 1003.5 |
| 20260505013046 | 43 | 147 | 1.0 | 4.0 | 0.00 | 0.08 | 0.00 | 87 | 1003.4 |
| 20260505011551 | 44 | 46 | 1.0 | 4.0 | 0.00 | 0.08 | 0.00 | 88 | 1003.3 |
| 20260505010044 | 44 | 34 | 1.0 | 7.0 | 0.00 | 0.08 | 0.00 | 88 | 1003.3 |
| 20260505004544 | 44 | 109 | 3.0 | 9.0 | 0.00 | 0.08 | 0.00 | 87 | 1003.2 |
| 20260505003038 | 44 | 19 | 0.0 | 8.0 | 0.00 | 0.08 | 0.00 | 86 | 1003.1 |
| 20260505001536 | 45 | 46 | 1.0 | 8.0 | 0.00 | 0.08 | 0.00 | 85 | 1002.9 |
| 20260505000033 | 45 | 70 | 4.0 | 13.0 | 0.00 | 0.08 | 0.00 | 84 | 1002.9 |
| 20260504234531 | 45 | 344 | 1.0 | 12.0 | 0.00 | 0.08 | 0.00 | 84 | 1002.9 |
| 20260504233029 | 45 | 46 | 3.0 | 12.0 | 0.00 | 0.08 | 0.00 | 83 | 1002.9 |
| 20260504231526 | 46 | 46 | 5.0 | 13.0 | 0.00 | 0.08 | 0.00 | 82 | 1002.9 |
| 20260504230027 | 46 | 35 | 1.0 | 9.0 | 0.00 | 0.08 | 0.00 | 80 | 1002.9 |
| 20260504224523 | 46 | 40 | 3.0 | 12.0 | 0.00 | 0.08 | 0.00 | 79 | 1002.8 |
| 20260504223019 | 47 | 30 | 2.0 | 8.0 | 0.00 | 0.08 | 0.00 | 76 | 1002.8 |
| 20260504221516 | 47 | 50 | 5.0 | 13.0 | 0.00 | 0.08 | 0.00 | 74 | 1002.8 |
| 20260504220020 | 47 | 67 | 4.0 | 12.0 | 0.00 | 0.08 | 0.08 | 70 | 1002.9 |
| 20260504214513 | 48 | 331 | 3.0 | 11.0 | 0.00 | 0.08 | 0.08 | 65 | 1002.8 |
| 20260504213012 | 48 | 44 | 6.0 | 15.0 | 0.00 | 0.08 | 0.08 | 60 | 1002.8 |
| 20260504211510 | 49 | 11 | 5.0 | 14.0 | 0.00 | 0.08 | 0.08 | 56 | 1002.8 |
| 20260504210010 | 49 | 76 | 4.0 | 9.0 | 0.00 | 0.08 | 0.08 | 53 | 1002.8 |
| 20260504204515 | 49 | 43 | 4.0 | 16.0 | 0.00 | 0.08 | 0.08 | 51 | 1002.9 |
| 20260504203008 | 49 | 42 | 0.0 | 8.0 | 0.00 | 0.08 | 0.08 | 52 | 1002.9 |
| 20260504201508 | 49 | 13 | 2.0 | 5.0 | 0.00 | 0.08 | 0.08 | 52 | 1002.9 |
| 20260504200007 | 50 | 63 | 3.0 | 12.0 | 0.00 | 0.08 | 0.08 | 51 | 1002.9 |
| 20260504194508 | 50 | 33 | 0.0 | 4.0 | 0.00 | 0.08 | 0.08 | 51 | 1003.0 |
| 20260504193006 | 51 | 41 | 1.0 | 5.0 | 0.00 | 0.08 | 0.08 | 50 | 1003.0 |
| 20260504191509 | 51 | 66 | 2.0 | 12.0 | 0.00 | 0.08 | 0.08 | 51 | 1003.0 |
| 20260504190006 | 52 | 27 | 2.0 | 8.0 | 0.00 | 0.08 | 0.08 | 50 | 1003.0 |
| 20260504184506 | 53 | 136 | 3.0 | 11.0 | 0.00 | 0.08 | 0.08 | 48 | 1002.9 |
| 20260504183004 | 53 | 330 | 1.0 | 10.0 | 0.00 | 0.08 | 0.08 | 46 | 1003.0 |
| 20260504181504 | 54 | 50 | 1.0 | 9.0 | 0.00 | 0.08 | 0.08 | 44 | 1003.1 |
| 20260504180003 | 55 | 58 | 3.0 | 12.0 | 0.00 | 0.08 | 0.08 | 42 | 1003.0 |
| 20260504174502 | 55 | 19 | 3.0 | 16.0 | 0.00 | 0.08 | 0.08 | 41 | 1003.0 |
| 20260504173004 | 56 | 41 | 2.0 | 13.0 | 0.00 | 0.08 | 0.08 | 41 | 1003.1 |
| 20260504171501 | 56 | 150 | 1.0 | 15.0 | 0.00 | 0.08 | 0.08 | 42 | 1003.0 |
| 20260504170104 | 57 | 151 | 2.0 | 10.0 | 0.00 | 0.08 | 0.08 | 42 | 1002.9 |
| 20260504160105 | 58 | 80 | 6.0 | 16.0 | 0.00 | 0.08 | 0.08 | 37 | 1002.7 |